26-04-2023, 00:00:03,    172,    0.0,    3.8,   0.00,   0.00, 1015.5,   61.8, -999.0
26-04-2023, 00:00:13,    172,    0.0,    3.8,   0.00,   0.00, 1015.5,   61.8, -999.0
26-04-2023, 00:00:23,    170,    0.0,    3.8,   0.00,   0.00, 1015.5,   61.8, -999.0
26-04-2023, 00:00:33,    170,    0.0,    3.8,   0.00,   0.00, 1015.5,   61.9, -999.0
26-04-2023, 00:00:43,    171,    0.0,    3.8,   0.00,   0.00, 1015.5,   61.9, -999.0
26-04-2023, 00:00:53,    170,    0.0,    3.8,   0.00,   0.00, 1015.5,   61.8, -999.0
26-04-2023, 00:01:03,    170,    0.0,    3.9,   0.00,   0.00, 1015.5,   61.8, -999.0
26-04-2023, 00:01:13,    170,    0.0,    3.8,   0.00,   0.00, 1015.5,   61.9, -999.0
26-04-2023, 00:01:23,    170,    0.0,    3.8,   0.00,   0.00, 1015.5,   61.9, -999.0
26-04-2023, 00:01:33,    170,    0.0,    3.9,   0.00,   0.00, 1015.5,   62.0, -999.0
26-04-2023, 00:01:43,    170,    0.0,    3.9,   0.00,   0.00, 1015.5,   62.0, -999.0
26-04-2023, 00:01:53,    181,    0.0,    4.0,   0.00,   0.00, 1015.5,   62.0, -999.0
26-04-2023, 00:02:03,    181,    0.0,    3.9,   0.00,   0.00, 1015.5,   61.9, -999.0
26-04-2023, 00:02:13,    181,    0.0,    3.9,   0.00,   0.00, 1015.5,   62.0, -999.0
26-04-2023, 00:02:23,    181,    0.0,    3.8,   0.00,   0.00, 1015.5,   61.9, -999.0
26-04-2023, 00:02:33,    181,    0.0,    3.8,   0.00,   0.00, 1015.5,   61.9, -999.0
26-04-2023, 00:02:43,    181,    0.0,    3.8,   0.00,   0.00, 1015.5,   62.0, -999.0
26-04-2023, 00:02:52,    181,    0.0,    3.8,   0.00,   0.00, 1015.5,   62.1, -999.0
26-04-2023, 00:03:03,    181,    0.0,    3.9,   0.00,   0.00, 1015.5,   62.0, -999.0
26-04-2023, 00:03:13,    181,    0.0,    3.8,   0.00,   0.00, 1015.5,   62.1, -999.0
26-04-2023, 00:03:23,    181,    0.0,    3.8,   0.00,   0.00, 1015.5,   62.1, -999.0
26-04-2023, 00:03:32,    181,    0.0,    3.8,   0.00,   0.00, 1015.5,   62.2, -999.0
26-04-2023, 00:03:43,    181,    0.0,    3.8,   0.00,   0.00, 1015.5,   62.1, -999.0
26-04-2023, 00:03:53,    181,    0.0,    3.8,   0.00,   0.00, 1015.5,   62.1, -999.0
26-04-2023, 00:04:02,    181,    0.0,    3.8,   0.00,   0.00, 1015.5,   62.0, -999.0
26-04-2023, 00:04:12,    181,    0.0,    3.8,   0.00,   0.00, 1015.5,   62.2, -999.0
26-04-2023, 00:04:23,    181,    0.0,    3.9,   0.00,   0.00, 1015.5,   62.2, -999.0
26-04-2023, 00:04:33,    181,    0.0,    3.9,   0.00,   0.00, 1015.5,   62.2, -999.0
26-04-2023, 00:04:42,    181,    0.0,    3.9,   0.00,   0.00, 1015.5,   62.3, -999.0
26-04-2023, 00:04:52,    181,    0.0,    3.8,   0.00,   0.00, 1015.5,   62.1, -999.0
26-04-2023, 00:05:03,    181,    0.0,    3.8,   0.00,   0.00, 1015.5,   62.2, -999.0
26-04-2023, 00:05:12,    180,    0.0,    3.8,   0.00,   0.00, 1015.5,   62.2, -999.0
26-04-2023, 00:05:22,    181,    0.0,    3.7,   0.00,   0.00, 1015.5,   62.2, -999.0
26-04-2023, 00:05:32,    181,    0.0,    3.6,   0.00,   0.00, 1015.5,   62.3, -999.0
26-04-2023, 00:05:43,    181,    0.0,    3.8,   0.00,   0.00, 1015.5,   62.3, -999.0
26-04-2023, 00:05:52,    180,    0.0,    3.8,   0.00,   0.00, 1015.5,   62.3, -999.0
26-04-2023, 00:06:02,    181,    0.0,    3.8,   0.00,   0.00, 1015.5,   62.3, -999.0
26-04-2023, 00:06:12,    180,    0.0,    3.8,   0.00,   0.00, 1015.5,   62.4, -999.0
26-04-2023, 00:06:23,    181,    0.0,    3.8,   0.00,   0.00, 1015.5,   62.5, -999.0
26-04-2023, 00:06:32,    181,    0.0,    3.8,   0.00,   0.00, 1015.4,   62.4, -999.0
26-04-2023, 00:06:42,    181,    0.0,    3.8,   0.00,   0.00, 1015.4,   62.4, -999.0
26-04-2023, 00:06:52,    181,    0.0,    3.8,   0.00,   0.00, 1015.4,   62.4, -999.0
26-04-2023, 00:07:02,    181,    0.0,    3.7,   0.00,   0.00, 1015.4,   62.4, -999.0
26-04-2023, 00:07:12,    181,    0.0,    3.8,   0.00,   0.00, 1015.4,   62.4, -999.0
26-04-2023, 00:07:22,    181,    0.0,    3.8,   0.00,   0.00, 1015.4,   62.4, -999.0
26-04-2023, 00:07:32,    180,    0.0,    3.8,   0.00,   0.00, 1015.3,   62.4, -999.0
26-04-2023, 00:07:42,    181,    0.0,    3.8,   0.00,   0.00, 1015.3,   62.5, -999.0
26-04-2023, 00:07:52,    181,    0.0,    3.8,   0.00,   0.00, 1015.3,   62.4, -999.0
26-04-2023, 00:08:02,    181,    0.0,    3.8,   0.00,   0.00, 1015.3,   62.5, -999.0
26-04-2023, 00:08:12,    180,    0.0,    3.7,   0.00,   0.00, 1015.3,   62.6, -999.0
26-04-2023, 00:08:22,    181,    0.0,    3.8,   0.00,   0.00, 1015.3,   62.6, -999.0
26-04-2023, 00:08:32,    181,    0.0,    3.8,   0.00,   0.00, 1015.3,   62.6, -999.0
26-04-2023, 00:08:42,    181,    0.0,    3.8,   0.00,   0.00, 1015.3,   62.7, -999.0
26-04-2023, 00:08:52,    181,    0.0,    3.8,   0.00,   0.00, 1015.3,   62.7, -999.0
26-04-2023, 00:09:02,    181,    0.0,    3.9,   0.00,   0.00, 1015.3,   62.6, -999.0
26-04-2023, 00:09:12,    180,    0.0,    3.9,   0.00,   0.00, 1015.3,   62.7, -999.0
26-04-2023, 00:09:22,    180,    0.0,    3.9,   0.00,   0.00, 1015.3,   62.6, -999.0
26-04-2023, 00:09:32,    181,    0.0,    3.9,   0.00,   0.00, 1015.3,   62.7, -999.0
26-04-2023, 00:09:42,    181,    0.0,    3.9,   0.00,   0.00, 1015.3,   62.6, -999.0
26-04-2023, 00:09:52,    181,    0.0,    3.9,   0.00,   0.00, 1015.3,   62.6, -999.0
26-04-2023, 00:10:02,    181,    0.0,    3.9,   0.00,   0.00, 1015.3,   62.6, -999.0
26-04-2023, 00:10:12,    180,    0.0,    3.9,   0.00,   0.00, 1015.3,   62.5, -999.0
26-04-2023, 00:10:22,    181,    0.0,    4.0,   0.00,   0.00, 1015.3,   62.5, -999.0
26-04-2023, 00:10:32,    181,    0.0,    3.9,   0.00,   0.00, 1015.3,   62.6, -999.0
26-04-2023, 00:10:42,    181,    0.0,    3.9,   0.00,   0.00, 1015.3,   62.5, -999.0
26-04-2023, 00:10:52,    181,    0.0,    3.8,   0.00,   0.00, 1015.3,   62.6, -999.0
26-04-2023, 00:11:02,    181,    0.0,    3.9,   0.00,   0.00, 1015.3,   62.6, -999.0
26-04-2023, 00:11:12,    181,    0.0,    3.9,   0.00,   0.00, 1015.3,   62.5, -999.0
26-04-2023, 00:11:22,    181,    0.0,    3.8,   0.00,   0.00, 1015.3,   62.6, -999.0
26-04-2023, 00:11:32,    181,    0.0,    3.8,   0.00,   0.00, 1015.3,   62.6, -999.0
26-04-2023, 00:11:42,    180,    0.0,    3.8,   0.00,   0.00, 1015.3,   62.7, -999.0
26-04-2023, 00:11:52,    179,    0.0,    3.8,   0.00,   0.00, 1015.3,   62.6, -999.0
26-04-2023, 00:12:02,    181,    0.0,    3.9,   0.00,   0.00, 1015.3,   62.6, -999.0
26-04-2023, 00:12:12,    181,    0.0,    3.8,   0.00,   0.00, 1015.3,   62.6, -999.0
26-04-2023, 00:12:22,    181,    0.0,    3.9,   0.00,   0.00, 1015.3,   62.6, -999.0
26-04-2023, 00:12:32,    180,    0.0,    3.9,   0.00,   0.00, 1015.2,   62.7, -999.0
26-04-2023, 00:12:41,    180,    0.0,    3.9,   0.00,   0.00, 1015.3,   62.6, -999.0
26-04-2023, 00:12:52,    180,    0.0,    3.9,   0.00,   0.00, 1015.2,   62.7, -999.0
26-04-2023, 00:13:02,    181,    0.0,    3.9,   0.00,   0.00, 1015.3,   62.7, -999.0
26-04-2023, 00:13:11,    180,    0.0,    3.9,   0.00,   0.00, 1015.3,   62.7, -999.0
26-04-2023, 00:13:21,    180,    0.0,    3.9,   0.00,   0.00, 1015.3,   62.7, -999.0
26-04-2023, 00:13:32,    180,    0.0,    3.9,   0.00,   0.00, 1015.3,   62.7, -999.0
26-04-2023, 00:13:42,    181,    0.0,    3.9,   0.00,   0.00, 1015.3,   62.8, -999.0
26-04-2023, 00:13:51,    181,    0.0,    3.8,   0.00,   0.00, 1015.3,   62.7, -999.0
26-04-2023, 00:14:02,    180,    0.0,    3.8,   0.00,   0.00, 1015.3,   62.6, -999.0
26-04-2023, 00:14:12,    180,    0.0,    3.8,   0.00,   0.00, 1015.2,   62.7, -999.0
26-04-2023, 00:14:21,    180,    0.0,    3.9,   0.00,   0.00, 1015.2,   62.6, -999.0
26-04-2023, 00:14:31,    181,    0.0,    3.9,   0.00,   0.00, 1015.2,   62.6, -999.0
26-04-2023, 00:14:42,    181,    0.0,    3.9,   0.00,   0.00, 1015.3,   62.6, -999.0
26-04-2023, 00:14:51,    180,    0.0,    3.9,   0.00,   0.00, 1015.3,   62.8, -999.0
26-04-2023, 00:15:01,    181,    0.0,    3.9,   0.00,   0.00, 1015.3,   62.8, -999.0
26-04-2023, 00:15:11,    181,    0.0,    3.9,   0.00,   0.00, 1015.3,   62.6, -999.0
26-04-2023, 00:15:22,    181,    0.0,    3.8,   0.00,   0.00, 1015.2,   62.6, -999.0
26-04-2023, 00:15:31,    181,    0.0,    3.9,   0.00,   0.00, 1015.2,   62.6, -999.0
26-04-2023, 00:15:41,    181,    0.0,    4.0,   0.00,   0.00, 1015.3,   62.6, -999.0
26-04-2023, 00:15:51,    181,    0.0,    3.9,   0.00,   0.00, 1015.2,   62.4, -999.0
26-04-2023, 00:16:01,    180,    0.0,    3.9,   0.00,   0.00, 1015.2,   62.5, -999.0
26-04-2023, 00:16:11,    181,    0.0,    4.0,   0.00,   0.00, 1015.3,   62.4, -999.0
26-04-2023, 00:16:21,    181,    0.0,    4.0,   0.00,   0.00, 1015.3,   62.6, -999.0
26-04-2023, 00:16:31,    181,    0.0,    3.9,   0.00,   0.00, 1015.3,   62.6, -999.0
26-04-2023, 00:16:41,    180,    0.0,    3.9,   0.00,   0.00, 1015.3,   62.5, -999.0
26-04-2023, 00:16:51,    181,    0.0,    4.0,   0.00,   0.00, 1015.2,   62.7, -999.0
26-04-2023, 00:17:01,    180,    0.0,    4.0,   0.00,   0.00, 1015.3,   62.4, -999.0
26-04-2023, 00:17:11,    181,    0.0,    4.0,   0.00,   0.00, 1015.3,   62.4, -999.0
26-04-2023, 00:17:21,    181,    0.0,    4.0,   0.00,   0.00, 1015.2,   62.3, -999.0
26-04-2023, 00:17:31,    180,    0.0,    4.0,   0.00,   0.00, 1015.3,   62.4, -999.0
26-04-2023, 00:17:41,    181,    0.0,    4.0,   0.00,   0.00, 1015.2,   62.4, -999.0
26-04-2023, 00:17:51,    181,    0.0,    3.9,   0.00,   0.00, 1015.3,   62.3, -999.0
26-04-2023, 00:18:01,    181,    0.0,    4.0,   0.00,   0.00, 1015.3,   62.4, -999.0
26-04-2023, 00:18:11,    180,    0.0,    4.1,   0.00,   0.00, 1015.3,   62.2, -999.0
26-04-2023, 00:18:21,    181,    0.0,    3.9,   0.00,   0.00, 1015.3,   62.2, -999.0
26-04-2023, 00:18:31,    181,    0.0,    3.9,   0.00,   0.00, 1015.2,   62.1, -999.0
26-04-2023, 00:18:41,    179,    0.0,    4.0,   0.00,   0.00, 1015.2,   62.2, -999.0
26-04-2023, 00:18:51,    181,    0.0,    4.0,   0.00,   0.00, 1015.2,   62.3, -999.0
26-04-2023, 00:19:01,    181,    0.0,    4.0,   0.00,   0.00, 1015.2,   62.2, -999.0
26-04-2023, 00:19:11,    180,    0.0,    4.0,   0.00,   0.00, 1015.2,   62.3, -999.0
26-04-2023, 00:19:21,    181,    0.0,    4.0,   0.00,   0.00, 1015.2,   62.2, -999.0
26-04-2023, 00:19:31,    181,    0.0,    4.0,   0.00,   0.00, 1015.2,   62.2, -999.0
26-04-2023, 00:19:41,    181,    0.0,    4.0,   0.00,   0.00, 1015.2,   62.2, -999.0
26-04-2023, 00:19:51,    181,    0.0,    4.0,   0.00,   0.00, 1015.2,   62.2, -999.0
26-04-2023, 00:20:01,    180,    0.0,    4.0,   0.00,   0.00, 1015.3,   62.3, -999.0
26-04-2023, 00:20:11,    181,    0.0,    4.0,   0.00,   0.00, 1015.2,   62.1, -999.0
26-04-2023, 00:20:21,    181,    0.0,    4.0,   0.00,   0.00, 1015.2,   62.2, -999.0
26-04-2023, 00:20:31,    180,    0.0,    4.0,   0.00,   0.00, 1015.2,   62.2, -999.0
26-04-2023, 00:20:41,    181,    0.0,    3.9,   0.00,   0.00, 1015.2,   62.3, -999.0
26-04-2023, 00:20:51,    181,    0.0,    4.0,   0.00,   0.00, 1015.2,   62.3, -999.0
26-04-2023, 00:21:01,    181,    0.0,    4.0,   0.00,   0.00, 1015.2,   62.2, -999.0
26-04-2023, 00:21:11,    180,    0.0,    4.0,   0.00,   0.00, 1015.2,   62.2, -999.0
26-04-2023, 00:21:21,    180,    0.0,    4.0,   0.00,   0.00, 1015.2,   62.2, -999.0
26-04-2023, 00:21:31,    181,    0.0,    4.1,   0.00,   0.00, 1015.2,   62.2, -999.0
26-04-2023, 00:21:40,    181,    0.0,    4.1,   0.00,   0.00, 1015.2,   62.2, -999.0
26-04-2023, 00:21:51,    180,    0.0,    3.9,   0.00,   0.00, 1015.2,   62.3, -999.0
26-04-2023, 00:22:01,    180,    0.0,    4.0,   0.00,   0.00, 1015.2,   62.4, -999.0
26-04-2023, 00:22:10,    180,    0.0,    4.0,   0.00,   0.00, 1015.2,   62.4, -999.0
26-04-2023, 00:22:20,    180,    0.0,    3.8,   0.00,   0.00, 1015.2,   62.4, -999.0
26-04-2023, 00:22:31,    180,    0.0,    4.0,   0.00,   0.00, 1015.2,   62.1, -999.0
26-04-2023, 00:22:41,    181,    0.0,    4.0,   0.00,   0.00, 1015.2,   62.1, -999.0
26-04-2023, 00:22:50,    180,    0.0,    4.0,   0.00,   0.00, 1015.2,   62.2, -999.0
26-04-2023, 00:23:00,    181,    0.0,    4.0,   0.00,   0.00, 1015.2,   62.2, -999.0
26-04-2023, 00:23:11,    180,    0.0,    4.0,   0.00,   0.00, 1015.1,   62.2, -999.0
26-04-2023, 00:23:20,    180,    0.0,    3.9,   0.00,   0.00, 1015.2,   62.1, -999.0
26-04-2023, 00:23:30,    181,    0.0,    4.1,   0.00,   0.00, 1015.2,   62.3, -999.0
26-04-2023, 00:23:40,    180,    0.0,    4.0,   0.00,   0.00, 1015.2,   62.2, -999.0
26-04-2023, 00:23:51,    180,    0.0,    4.0,   0.00,   0.00, 1015.1,   62.3, -999.0
26-04-2023, 00:24:00,    180,    0.0,    3.9,   0.00,   0.00, 1015.2,   62.3, -999.0
26-04-2023, 00:24:10,    181,    0.0,    4.0,   0.00,   0.00, 1015.2,   62.2, -999.0
26-04-2023, 00:24:20,    180,    0.0,    4.0,   0.00,   0.00, 1015.1,   62.3, -999.0
26-04-2023, 00:24:30,    180,    0.0,    4.0,   0.00,   0.00, 1015.1,   62.3, -999.0
26-04-2023, 00:24:40,    180,    0.0,    4.0,   0.00,   0.00, 1015.1,   62.2, -999.0
26-04-2023, 00:24:50,    181,    0.0,    3.8,   0.00,   0.00, 1015.1,   62.2, -999.0
26-04-2023, 00:25:00,    181,    0.0,    4.0,   0.00,   0.00, 1015.1,   62.2, -999.0
26-04-2023, 00:25:10,    181,    0.0,    4.0,   0.00,   0.00, 1015.1,   62.3, -999.0
26-04-2023, 00:25:20,    181,    0.0,    3.9,   0.00,   0.00, 1015.1,   62.4, -999.0
26-04-2023, 00:25:30,    181,    0.0,    3.9,   0.00,   0.00, 1015.1,   62.4, -999.0
26-04-2023, 00:25:40,    181,    0.0,    3.9,   0.00,   0.00, 1015.1,   62.4, -999.0
26-04-2023, 00:25:50,    180,    0.0,    4.0,   0.00,   0.00, 1015.1,   62.3, -999.0
26-04-2023, 00:26:00,    181,    0.0,    4.0,   0.00,   0.00, 1015.1,   62.4, -999.0
26-04-2023, 00:26:10,    180,    0.0,    4.0,   0.00,   0.00, 1015.1,   62.3, -999.0
26-04-2023, 00:26:20,    180,    0.0,    4.0,   0.00,   0.00, 1015.1,   62.4, -999.0
26-04-2023, 00:26:30,    181,    0.0,    4.1,   0.00,   0.00, 1015.1,   62.5, -999.0
26-04-2023, 00:26:40,    180,    0.0,    4.0,   0.00,   0.00, 1015.1,   62.6, -999.0
26-04-2023, 00:26:50,    181,    0.0,    4.0,   0.00,   0.00, 1015.1,   62.7, -999.0
26-04-2023, 00:27:00,    181,    0.0,    4.0,   0.00,   0.00, 1015.1,   62.6, -999.0
26-04-2023, 00:27:10,    181,    0.0,    4.0,   0.00,   0.00, 1015.1,   62.6, -999.0
26-04-2023, 00:27:20,    181,    0.0,    4.0,   0.00,   0.00, 1015.1,   62.6, -999.0
26-04-2023, 00:27:30,    181,    0.0,    4.0,   0.00,   0.00, 1015.1,   62.6, -999.0
26-04-2023, 00:27:40,    180,    0.0,    4.1,   0.00,   0.00, 1015.1,   62.7, -999.0
26-04-2023, 00:27:50,    180,    0.0,    4.1,   0.00,   0.00, 1015.1,   62.8, -999.0
26-04-2023, 00:28:00,    181,    0.0,    4.1,   0.00,   0.00, 1015.1,   62.7, -999.0
26-04-2023, 00:28:10,    181,    0.0,    4.1,   0.00,   0.00, 1015.1,   62.6, -999.0
26-04-2023, 00:28:20,    181,    0.0,    4.1,   0.00,   0.00, 1015.1,   62.6, -999.0
26-04-2023, 00:28:30,    181,    0.0,    4.0,   0.00,   0.00, 1015.1,   62.6, -999.0
26-04-2023, 00:28:40,    181,    0.0,    4.0,   0.00,   0.00, 1015.1,   62.7, -999.0
26-04-2023, 00:28:50,    181,    0.0,    4.0,   0.00,   0.00, 1015.1,   62.6, -999.0
26-04-2023, 00:29:00,    180,    0.0,    4.0,   0.00,   0.00, 1015.1,   62.7, -999.0
26-04-2023, 00:29:10,    180,    0.0,    4.0,   0.00,   0.00, 1015.1,   62.8, -999.0
26-04-2023, 00:29:20,    181,    0.0,    4.0,   0.00,   0.00, 1015.1,   62.6, -999.0
26-04-2023, 00:29:30,    181,    0.0,    3.9,   0.00,   0.00, 1015.1,   62.6, -999.0
26-04-2023, 00:29:40,    180,    0.0,    4.0,   0.00,   0.00, 1015.1,   62.8, -999.0
26-04-2023, 00:29:50,    180,    0.0,    4.0,   0.00,   0.00, 1015.1,   62.7, -999.0
26-04-2023, 00:30:00,    180,    0.0,    4.0,   0.00,   0.00, 1015.1,   62.7, -999.0
26-04-2023, 00:30:09,    181,    0.0,    4.1,   0.00,   0.00, 1015.1,   62.8, -999.0
26-04-2023, 00:30:20,    180,    0.0,    4.0,   0.00,   0.00, 1015.1,   62.8, -999.0
26-04-2023, 00:30:30,    181,    0.0,    4.0,   0.00,   0.00, 1015.1,   62.6, -999.0
26-04-2023, 00:30:40,    180,    0.0,    4.0,   0.00,   0.00, 1015.1,   62.7, -999.0
26-04-2023, 00:30:50,    180,    0.0,    4.0,   0.00,   0.00, 1015.1,   62.7, -999.0
26-04-2023, 00:31:00,    180,    0.0,    4.0,   0.00,   0.00, 1015.1,   62.7, -999.0
26-04-2023, 00:31:10,    181,    0.0,    3.9,   0.00,   0.00, 1015.1,   62.7, -999.0
26-04-2023, 00:31:19,    180,    0.0,    4.0,   0.00,   0.00, 1015.1,   62.7, -999.0
26-04-2023, 00:31:30,    180,    0.0,    4.0,   0.00,   0.00, 1015.1,   62.7, -999.0
26-04-2023, 00:31:40,    180,    0.0,    4.0,   0.00,   0.00, 1015.1,   62.8, -999.0
26-04-2023, 00:31:49,    180,    0.0,    3.9,   0.00,   0.00, 1015.1,   62.9, -999.0
26-04-2023, 00:31:59,    180,    0.0,    3.9,   0.00,   0.00, 1015.1,   62.7, -999.0
26-04-2023, 00:32:10,    180,    0.0,    3.9,   0.00,   0.00, 1015.1,   62.8, -999.0
26-04-2023, 00:32:20,    180,    0.0,    3.9,   0.00,   0.00, 1015.1,   62.8, -999.0
26-04-2023, 00:32:29,    180,    0.0,    3.8,   0.00,   0.00, 1015.1,   62.9, -999.0
26-04-2023, 00:32:39,    181,    0.0,    3.8,   0.00,   0.00, 1015.1,   62.9, -999.0
26-04-2023, 00:32:50,    179,    0.0,    3.8,   0.00,   0.00, 1015.1,   62.9, -999.0
26-04-2023, 00:32:59,    180,    0.0,    3.8,   0.00,   0.00, 1015.0,   62.8, -999.0
26-04-2023, 00:33:09,    180,    0.0,    3.8,   0.00,   0.00, 1015.1,   62.9, -999.0
26-04-2023, 00:33:19,    180,    0.0,    3.9,   0.00,   0.00, 1015.0,   62.9, -999.0
26-04-2023, 00:33:30,    181,    0.0,    3.9,   0.00,   0.00, 1015.0,   63.1, -999.0
26-04-2023, 00:33:39,    180,    0.0,    3.8,   0.00,   0.00, 1015.0,   63.0, -999.0
26-04-2023, 00:33:49,    180,    0.0,    3.8,   0.00,   0.00, 1015.1,   63.1, -999.0
26-04-2023, 00:33:59,    180,    0.0,    3.8,   0.00,   0.00, 1015.0,   63.2, -999.0
26-04-2023, 00:34:09,    176,    0.0,    3.8,   0.00,   0.00, 1015.0,   63.1, -999.0
26-04-2023, 00:34:19,    180,    0.0,    3.9,   0.00,   0.00, 1015.0,   63.1, -999.0
26-04-2023, 00:34:29,    180,    0.0,    3.9,   0.00,   0.00, 1015.0,   63.1, -999.0
26-04-2023, 00:34:39,    180,    0.0,    3.8,   0.00,   0.00, 1015.0,   63.2, -999.0
26-04-2023, 00:34:49,    180,    0.0,    3.9,   0.00,   0.00, 1015.0,   63.1, -999.0
26-04-2023, 00:34:59,    180,    0.0,    3.9,   0.00,   0.00, 1015.0,   63.2, -999.0
26-04-2023, 00:35:09,    180,    0.0,    3.9,   0.00,   0.00, 1015.0,   63.2, -999.0
26-04-2023, 00:35:19,    180,    0.0,    3.7,   0.00,   0.00, 1015.0,   63.2, -999.0
26-04-2023, 00:35:29,    179,    0.0,    3.8,   0.00,   0.00, 1015.0,   63.1, -999.0
26-04-2023, 00:35:39,    181,    0.0,    3.8,   0.00,   0.00, 1015.0,   63.2, -999.0
26-04-2023, 00:35:49,    180,    0.0,    3.9,   0.00,   0.00, 1015.0,   63.1, -999.0
26-04-2023, 00:35:59,    180,    0.0,    3.8,   0.00,   0.00, 1015.0,   63.1, -999.0
26-04-2023, 00:36:09,    180,    0.0,    3.8,   0.00,   0.00, 1015.0,   63.1, -999.0
26-04-2023, 00:36:19,    180,    0.0,    3.8,   0.00,   0.00, 1015.0,   63.3, -999.0
26-04-2023, 00:36:29,    180,    0.0,    3.8,   0.00,   0.00, 1014.9,   63.3, -999.0
26-04-2023, 00:36:39,    180,    0.0,    3.8,   0.00,   0.00, 1014.9,   63.2, -999.0
26-04-2023, 00:36:49,    180,    0.0,    3.8,   0.00,   0.00, 1014.9,   63.2, -999.0
26-04-2023, 00:36:59,    171,    0.0,    3.8,   0.00,   0.00, 1015.0,   63.3, -999.0
26-04-2023, 00:37:09,    171,    0.0,    3.8,   0.00,   0.00, 1015.0,   63.3, -999.0
26-04-2023, 00:37:19,    171,    0.0,    3.8,   0.00,   0.00, 1015.0,   63.2, -999.0
26-04-2023, 00:37:29,    170,    0.0,    3.8,   0.00,   0.00, 1015.0,   63.3, -999.0
26-04-2023, 00:37:39,    171,    0.0,    3.8,   0.00,   0.00, 1015.0,   63.4, -999.0
26-04-2023, 00:37:49,    170,    0.0,    3.8,   0.00,   0.00, 1014.9,   63.3, -999.0
26-04-2023, 00:37:59,    171,    0.0,    3.7,   0.00,   0.00, 1015.0,   63.4, -999.0
26-04-2023, 00:38:09,    170,    0.0,    3.7,   0.00,   0.00, 1015.0,   63.4, -999.0
26-04-2023, 00:38:19,    170,    0.0,    3.8,   0.00,   0.00, 1014.9,   63.4, -999.0
26-04-2023, 00:38:29,    171,    0.0,    3.8,   0.00,   0.00, 1015.0,   63.3, -999.0
26-04-2023, 00:38:39,    171,    0.0,    3.8,   0.00,   0.00, 1015.0,   63.5, -999.0
26-04-2023, 00:38:49,    170,    0.0,    3.8,   0.00,   0.00, 1015.0,   63.4, -999.0
26-04-2023, 00:38:59,    170,    0.0,    3.8,   0.00,   0.00, 1015.0,   63.5, -999.0
26-04-2023, 00:39:09,    173,    0.0,    3.7,   0.00,   0.00, 1015.0,   63.4, -999.0
26-04-2023, 00:39:19,    171,    0.0,    3.7,   0.00,   0.00, 1015.0,   63.4, -999.0
26-04-2023, 00:39:29,    170,    0.0,    3.8,   0.00,   0.00, 1015.0,   63.4, -999.0
26-04-2023, 00:39:40,    171,    0.0,    3.8,   0.00,   0.00, 1015.0,   63.5, -999.0
26-04-2023, 00:39:48,    170,    0.0,    3.8,   0.00,   0.00, 1015.0,   63.6, -999.0
26-04-2023, 00:39:59,    170,    0.0,    3.8,   0.00,   0.00, 1015.0,   63.5, -999.0
26-04-2023, 00:40:09,    170,    0.0,    3.8,   0.00,   0.00, 1015.0,   63.6, -999.0
26-04-2023, 00:40:19,    170,    0.0,    3.7,   0.00,   0.00, 1015.0,   63.5, -999.0
26-04-2023, 00:40:28,    170,    0.0,    3.7,   0.00,   0.00, 1015.0,   63.5, -999.0
26-04-2023, 00:40:39,    170,    0.0,    3.7,   0.00,   0.00, 1015.0,   63.7, -999.0
26-04-2023, 00:40:49,    170,    0.0,    3.8,   0.00,   0.00, 1015.0,   63.6, -999.0
26-04-2023, 00:40:58,    171,    0.0,    3.8,   0.00,   0.00, 1015.0,   63.6, -999.0
26-04-2023, 00:41:09,    170,    0.0,    3.8,   0.00,   0.00, 1015.0,   63.7, -999.0
26-04-2023, 00:41:19,    170,    0.0,    3.8,   0.00,   0.00, 1015.0,   63.6, -999.0
26-04-2023, 00:41:29,    170,    0.0,    3.8,   0.00,   0.00, 1015.0,   63.5, -999.0
26-04-2023, 00:41:38,    170,    0.0,    3.8,   0.00,   0.00, 1015.1,   63.5, -999.0
26-04-2023, 00:41:49,    170,    0.0,    3.7,   0.00,   0.00, 1015.1,   63.6, -999.0
26-04-2023, 00:41:59,    170,    0.0,    3.8,   0.00,   0.00, 1015.1,   63.7, -999.0
26-04-2023, 00:42:08,    170,    0.0,    3.7,   0.00,   0.00, 1015.0,   63.6, -999.0
26-04-2023, 00:42:18,    170,    0.0,    3.8,   0.00,   0.00, 1015.1,   63.6, -999.0
26-04-2023, 00:42:29,    170,    0.0,    3.7,   0.00,   0.00, 1015.1,   63.7, -999.0
26-04-2023, 00:42:38,    170,    0.0,    3.7,   0.00,   0.00, 1015.1,   63.7, -999.0
26-04-2023, 00:42:48,    170,    0.0,    3.7,   0.00,   0.00, 1015.1,   63.5, -999.0
26-04-2023, 00:42:58,    170,    0.0,    3.8,   0.00,   0.00, 1015.1,   63.7, -999.0
26-04-2023, 00:43:09,    170,    0.0,    3.7,   0.00,   0.00, 1015.0,   63.7, -999.0
26-04-2023, 00:43:18,    171,    0.0,    3.7,   0.00,   0.00, 1015.1,   63.7, -999.0
26-04-2023, 00:43:28,    170,    0.0,    3.8,   0.00,   0.00, 1015.1,   63.9, -999.0
26-04-2023, 00:43:38,    170,    0.0,    3.7,   0.00,   0.00, 1015.1,   63.8, -999.0
26-04-2023, 00:43:48,    170,    0.0,    3.6,   0.00,   0.00, 1015.1,   63.8, -999.0
26-04-2023, 00:43:58,    170,    0.0,    3.7,   0.00,   0.00, 1015.1,   63.9, -999.0
26-04-2023, 00:44:08,    170,    0.0,    3.7,   0.00,   0.00, 1015.1,   63.8, -999.0
26-04-2023, 00:44:18,    170,    0.0,    3.7,   0.00,   0.00, 1015.1,   63.9, -999.0
26-04-2023, 00:44:28,    170,    0.0,    3.7,   0.00,   0.00, 1015.1,   63.8, -999.0
26-04-2023, 00:44:38,    170,    0.0,    3.6,   0.00,   0.00, 1015.1,   63.9, -999.0
26-04-2023, 00:44:48,    171,    0.0,    3.7,   0.00,   0.00, 1015.1,   64.0, -999.0
26-04-2023, 00:44:58,    171,    0.0,    3.7,   0.00,   0.00, 1015.1,   63.9, -999.0
26-04-2023, 00:45:08,    171,    0.0,    3.8,   0.00,   0.00, 1015.1,   64.0, -999.0
26-04-2023, 00:45:18,    171,    0.0,    3.8,   0.00,   0.00, 1015.1,   64.0, -999.0
26-04-2023, 00:45:28,    171,    0.0,    3.8,   0.00,   0.00, 1015.1,   64.0, -999.0
26-04-2023, 00:45:38,    170,    0.0,    3.9,   0.00,   0.00, 1015.1,   64.0, -999.0
26-04-2023, 00:45:48,    169,    0.0,    3.9,   0.00,   0.00, 1015.1,   64.1, -999.0
26-04-2023, 00:45:58,    170,    0.0,    3.9,   0.00,   0.00, 1015.1,   63.9, -999.0
26-04-2023, 00:46:08,    169,    0.0,    3.8,   0.00,   0.00, 1015.1,   63.8, -999.0
26-04-2023, 00:46:18,    170,    0.0,    3.9,   0.00,   0.00, 1015.1,   63.8, -999.0
26-04-2023, 00:46:28,    171,    0.0,    3.8,   0.00,   0.00, 1015.1,   63.8, -999.0
26-04-2023, 00:46:38,    170,    0.0,    3.8,   0.00,   0.00, 1015.1,   63.8, -999.0
26-04-2023, 00:46:48,    170,    0.0,    3.7,   0.00,   0.00, 1015.1,   63.7, -999.0